User: anonymous
Location: Caltech
(34.1382°N, 118.1253°W)
Time: 21:48:29
(UTC-07:00)
Language:

Cosmos 1937 Rocket - Orbit

View from above orbital plane
View from above orbital plane
View from above satellite
View from above satellite

Ground track
Ground track

The orbit data is extracted from the following two-line orbital elements,

1 19039U 88029B   14294.14045297  .00000669  00000-0  22884-3 0  1632
2 19039 074.0477 285.4759 0024649 336.4898 099.9683 14.38054346391396
Epoch (UTC): 21 October 2014 03:22:15
Eccentricity: 0.0024649
inclination: 74.0477°
perigee height: 747 km
apogee height: 782 km
right ascension of ascending node: 285.4759°
argument of perigee: 336.4898°
revolutions per day: 14.38054346
mean anomaly at epoch: 99.9683°
orbit number at epoch: 39139

The dashed part of the orbit path shows where the satellite is in the earth's shadow,  

DLR